NWS Watch, Warning, Advisory or Statement is in effect for Boone County, KY. View Alert


Wilmington, OH NWS (KILN) Doppler Radar Loop using GRLevel3 Software
Last 10 volume scans
Wilmington, OH Radar using GRLevel3

  ILN Radar Status: 
                    FTMILN
                    MESSAGE DATE:  NOV 10 2018 00:59:49
                    KILN RADAR WAS SWITCHED FROM MARSHALL-PALMER TO EAST COOL.
                    
                    

Wilmington, OH NWS Radar Loop
Wilmington OH Radar Loop

Regional Radar Loop
Regional Radar Loop

GOES 16 GeoColor (True Color daytime, multispectral IR at night) - Great Lakes Region Loop
Regional GOES 16 IR Band 15 - Great Lakes Region Loop


National Weather Service Regional Observations

Station State Time Temperature Dew Point RH Wind Heat Index Wind Chill Pressure Visibility Weather
Charleston West Virginia 11/10/2018 1:54 AM 36.0 30.0 79 WNW (300) at 8, 24 gusts N/A 29.7 30.14 10.0 --
Cleveland Ohio 11/10/2018 1:51 AM 30.9 24.1 75 WSW (240) at 21 N/A 18.7 30.04 10.0 --
Columbus Ohio 11/10/2018 1:51 AM 30.0 19.0 63 W (270) at 15 N/A 19.4 30.13 10.0 --
Covington Kentucky 11/10/2018 1:52 AM 30.9 21.9 69 W (280) at 10 N/A 22.3 30.19 10.0 --
Dayton Ohio 11/10/2018 1:56 AM 28.0 18.0 65 W (270) at 13 N/A 17.8 30.16 10.0 --
Dothan Alabama 11/10/2018 1:53 AM 52.0 46.9 83 NNW (330) at 17, 25 gusts N/A N/A 30.17 10.0 --
Evansville Indiana 11/10/2018 2:03 AM 28.9 19.0 66 NW (310) at 13, 20 gusts N/A 18.7 30.37 10.0 --
Fort Wayne Indiana 11/10/2018 1:54 AM 25.0 14.0 62 W (280) at 23, 38 gusts N/A 9.9 30.14 10.0 --
Frankfort Kentucky 11/10/2018 1:53 AM 32.0 23.0 69 WSW (250) at 5 N/A 27.5 30.23 10.0 --
Huntsville Alabama 11/10/2018 1:53 AM 37.0 30.0 75 N (350) at 8 N/A 31.3 30.30 10.0 --
Indianapolis Indiana 11/10/2018 1:54 AM 23.0 12.9 65 WNW (300) at 17, 29 gusts N/A 9.5 30.26 10.0 --
Knoxville Tennessee 11/10/2018 1:53 AM 39.9 34.0 79 WNW (300) at 9 N/A 34.0 30.21 10.0 --
Lexington Kentucky 11/10/2018 1:54 AM 30.9 23.0 72 W (260) at 7 N/A 24.6 30.23 10.0 --
Louisville Kentucky 11/10/2018 1:56 AM 34.0 24.1 67 WSW (250) at 12 N/A 25.5 30.26 10.0 --
Nashville Tennessee 11/10/2018 1:53 AM 36.0 23.0 59 NNW (330) at 9 N/A 29.3 30.33 10.0 --
Noctor/Jackson Kentucky 11/10/2018 1:53 AM 33.1 24.1 69 W (270) at 8 N/A 26.4 30.20 10.0 --
Paducah Kentucky 11/10/2018 1:53 AM 30.0 19.0 63 NNW (330) at 7 N/A 23.2 30.38 10.0 --
Pittsburgh Pennsylvania 11/10/2018 1:51 AM 33.1 26.1 75 W (270) at 15 N/A 23.0 29.98 10.0 --
St. Louis Missouri 11/10/2018 1:51 AM 23.0 10.0 57 NW (310) at 16, 23 gusts N/A 9.7 30.44 10.0 --
Wilmington Ohio 11/10/2018 1:54 AM 28.0 18.0 65 W (280) at 15 N/A 16.9 30.17 10.0 --

These are regional hourly observations made by the National Weather Service. The observations are usually made between 50 and 59 minutes past the hour and are usually available by 15 minutes past the next hour.


This page will reload automatically every 10 minutes.

38,517 Page Views